Location: Remedello Sotto
(45.2500°N, 10.3667°E)
Time: 10:38:58
(UTC+00:00)

Cosmos 407 Rocket - Pass Details

Date: 03 February 2023
Orbit: 743 x 785 km, 74.0° (Epoch: 20 March)

Event Time Altitude Azimuth Distance (km) Brightness Sun altitude
Rises 17:13:15 0° 209° (SSW) 3,190 7.4 -8.3°
Reaches altitude 10° 17:15:39 10° 213° (SSW) 2,265 6.7 -8.7°
Maximum altitude 17:20:43 62° 294° (WNW) 840 4.0 -9.6°
Drops below altitude 10° 17:25:48 10° 15° (NNE) 2,266 5.7 -10.5°
Sets 17:28:12 0° 19° (NNE) 3,193 6.4 -10.9°
